Weather in Druzhba

Russia / Tyva Republic     51°00′24″N   90°13′11″E
temp.,
°C
wind,
m/s
gust,
m/s
humid.,
%
clouds,
%
prec.,
mm/h
press.,
hPa
HPBL,
m
27 february, sat
sat2701:00−25n116432 0.0 103820
04:00−27wnw006941 0.0 103920
07:00−27nw007052 0.0 104019
10:00−24e117323 0.0 103853
13:00−20ene216927 0.0 1035292
16:00−19ese117071 0.0 1033332
19:00−24sse008385 0.0 103620
22:00−26ne018455 0.0 104020
28 february, sun
sun2801:00−27ese008646 0.0 104120
04:00−28e00870 0.0 104219
07:00−29ene00870 0.0 104519
10:00−24e11850 0.0 104340
13:00−20ene21740 0.0 1039198
16:00−18ne22752 0.0 1037231
19:00−23ne118829 0.0 103820
22:00−25e0192100 0.0 103920
1 march, mon
mon101:00−24s0092100 0.0 103720
04:00−25sse1191100 0.0 103620
07:00−26ene0091100 0.0 103320
10:00−22ne1190100 0.0 103068
13:00−19nne1185100 0.0 1025157
16:00−16nne1181100 0.0 1021145
19:00−18nne1190100 0.0 102121
22:00−19ne1188100 0.0 102120
2 march, tue
tue201:00−20e0190100 0.0 102120
04:00−19e1191100 0.0 102020
07:00−18ne1190100 0.0 102120
10:00−15e128848 0.0 102049
13:00−6ese137251 0.0 1018355
16:00−2ssw047073 0.0 1017409
19:00−8e126987 0.0 101826
22:00−13nne1179100 0.0 101921
3 march, wed
wed301:00−14nnw018099 0.0 101821
04:00−15ne008488 0.0 101620
07:00−14e018594 0.0 101620
10:00−11ene2284100 0.0 101460
13:00−6ene227379 0.0 1012202
16:00−3e177463 0.1 1011707
19:00−8wsw236348 0.2 101638
22:00−10sw225959 0.0 102121